• în România
  • Lista ţărilor
  • Pe 7 zile
  • Temperatura apei
  • Hartă satelitară
  • Meteo pe hartă
  • Widget-uri
  • user-avatar
    Intrare

    Meteo pe oră la Ertil

    Astăzi, 21 Iulie, Sâmbătă

    Timp Temperatura Precipitaţii Vânt Presiune Umiditate
    00:00 +19°C° 0 mm 2 m/s 739 mmHg 92%
    01:00 +19°C° 0 mm 2 m/s 739 mmHg 93%
    02:00 +19°C° 0 mm 2 m/s 739 mmHg 93%
    03:00 +19°C° 0 mm 1 m/s 739 mmHg 94%
    04:00 +20°C° 0 mm 1 m/s 739 mmHg 93%
    05:00 +19°C° 0 mm 2 m/s 739 mmHg 93%
    06:00 +19°C° 0 mm 2 m/s 739 mmHg 92%
    07:00 +21°C° 0 mm 2 m/s 739 mmHg 87%
    08:00 +23°C° 0 mm 2 m/s 739 mmHg 82%
    09:00 +24°C° 0 mm 2 m/s 739 mmHg 76%
    10:00 +25°C° 0 mm 2 m/s 739 mmHg 73%
    11:00 +26°C° 0 mm 2 m/s 739 mmHg 69%
    12:00 +27°C° 0 mm 2 m/s 739 mmHg 65%
    13:00 +27°C° 0,3 mm 2 m/s 738 mmHg 64%
    14:00 +28°C° 0,3 mm 2 m/s 738 mmHg 62%
    15:00 +28°C° 0,3 mm 2 m/s 738 mmHg 61%
    16:00 +28°C° 0,2 mm 1 m/s 738 mmHg 63%
    17:00 +28°C° 0,2 mm 1 m/s 738 mmHg 65%
    18:00 +28°C° 0,2 mm 1 m/s 738 mmHg 67%
    19:00 +26°C° 0,3 mm 1 m/s 738 mmHg 72%
    20:00 +25°C° 0,3 mm 1 m/s 738 mmHg 77%
    21:00 +23°C° 0,3 mm 2 m/s 739 mmHg 82%
    22:00 +23°C° 0 mm 2 m/s 739 mmHg 84%
    23:00 +21°C° 0 mm 2 m/s 739 mmHg 87%

    Mâine, 22 Iulie, Duminică

    Timp Temperatura Precipitaţii Vânt Presiune Umiditate
    00:00 +21°C° 0 mm 2 m/s 739 mmHg 89%
    01:00 +20°C° 0 mm 2 m/s 739 mmHg 91%
    02:00 +20°C° 0 mm 2 m/s 739 mmHg 93%
    03:00 +20°C° 0 mm 2 m/s 739 mmHg 95%
    04:00 +20°C° 0 mm 2 m/s 739 mmHg 94%
    05:00 +20°C° 0 mm 3 m/s 739 mmHg 94%
    06:00 +20°C° 0 mm 3 m/s 739 mmHg 94%
    07:00 +21°C° 0,2 mm 3 m/s 739 mmHg 90%
    08:00 +22°C° 0,2 mm 3 m/s 739 mmHg 87%
    09:00 +24°C° 0,2 mm 3 m/s 739 mmHg 83%
    10:00 +25°C° 0,9 mm 3 m/s 739 mmHg 80%
    11:00 +26°C° 0,9 mm 4 m/s 739 mmHg 77%
    12:00 +27°C° 0,9 mm 4 m/s 739 mmHg 75%
    13:00 +26°C° 1 mm 4 m/s 739 mmHg 75%
    14:00 +26°C° 1 mm 4 m/s 739 mmHg 76%
    15:00 +26°C° 1 mm 5 m/s 739 mmHg 77%
    16:00 +26°C° 0,5 mm 5 m/s 739 mmHg 79%
    17:00 +25°C° 0,5 mm 4 m/s 739 mmHg 82%
    18:00 +25°C° 0,5 mm 4 m/s 739 mmHg 85%
    19:00 +23°C° 0,4 mm 4 m/s 739 mmHg 87%
    20:00 +22°C° 0,4 mm 4 m/s 740 mmHg 90%
    21:00 +21°C° 0,4 mm 4 m/s 740 mmHg 93%
    22:00 +21°C° 1,1 mm 4 m/s 740 mmHg 94%
    23:00 +20°C° 1,1 mm 4 m/s 740 mmHg 95%

    Poimâine, 23 Iulie, Luni

    Timp Temperatura Precipitaţii Vânt Presiune Umiditate
    00:00 +20°C° 1,1 mm 4 m/s 740 mmHg 95%
    01:00 +20°C° 0,3 mm 3 m/s 740 mmHg 96%
    02:00 +20°C° 0,3 mm 3 m/s 740 mmHg 96%
    03:00 +20°C° 0,3 mm 3 m/s 740 mmHg 96%
    04:00 +20°C° 0,2 mm 3 m/s 740 mmHg 96%
    05:00 +20°C° 0,2 mm 3 m/s 740 mmHg 95%
    06:00 +20°C° 0,2 mm 3 m/s 740 mmHg 95%
    07:00 +21°C° 0,1 mm 3 m/s 740 mmHg 92%
    08:00 +22°C° 0,1 mm 3 m/s 740 mmHg 88%
    09:00 +24°C° 0,1 mm 3 m/s 740 mmHg 85%
    10:00 +25°C° 1,1 mm 3 m/s 740 mmHg 80%
    11:00 +26°C° 1,1 mm 3 m/s 740 mmHg 76%
    12:00 +27°C° 1,1 mm 4 m/s 740 mmHg 71%
    13:00 +27°C° 1,2 mm 4 m/s 740 mmHg 72%
    14:00 +27°C° 1,2 mm 4 m/s 740 mmHg 73%
    15:00 +27°C° 1,2 mm 4 m/s 740 mmHg 74%
    16:00 +26°C° 0,5 mm 4 m/s 740 mmHg 77%
    17:00 +26°C° 0,5 mm 4 m/s 741 mmHg 80%
    18:00 +25°C° 0,5 mm 4 m/s 741 mmHg 84%
    19:00 +23°C° 0,2 mm 4 m/s 741 mmHg 85%
    20:00 +22°C° 0,2 mm 4 m/s 741 mmHg 87%
    21:00 +22°C° 0,2 mm 4 m/s 741 mmHg 89%
    22:00 +21°C° 0,3 mm 4 m/s 741 mmHg 90%
    23:00 +21°C° 0,3 mm 4 m/s 742 mmHg 91%

    24 Iulie, Marţi

    Timp Temperatura Precipitaţii Vânt Presiune Umiditate
    00:00 +20°C° 0,3 mm 4 m/s 742 mmHg 93%
    01:00 +20°C° 0,2 mm 4 m/s 742 mmHg 93%
    02:00 +20°C° 0,2 mm 4 m/s 742 mmHg 94%
    03:00 +19°C° 0,2 mm 4 m/s 742 mmHg 95%
    04:00 +20°C° 0,1 mm 4 m/s 742 mmHg 94%
    05:00 +20°C° 0,1 mm 4 m/s 742 mmHg 93%
    06:00 +20°C° 0,1 mm 4 m/s 743 mmHg 92%
    07:00 +21°C° 0,1 mm 4 m/s 743 mmHg 88%
    08:00 +22°C° 0,1 mm 5 m/s 743 mmHg 83%
    09:00 +23°C° 0,1 mm 5 m/s 743 mmHg 78%
    10:00 +25°C° 0,3 mm 5 m/s 743 mmHg 75%
    11:00 +26°C° 0,3 mm 6 m/s 744 mmHg 72%
    12:00 +27°C° 0,3 mm 6 m/s 744 mmHg 68%
    13:00 +27°C° 0,3 mm 6 m/s 744 mmHg 67%
    14:00 +27°C° 0,3 mm 6 m/s 744 mmHg 67%
    15:00 +26°C° 0,3 mm 6 m/s 744 mmHg 66%
    16:00 +26°C° 0,3 mm 5 m/s 744 mmHg 71%
    17:00 +25°C° 0,3 mm 5 m/s 745 mmHg 75%
    18:00 +25°C° 0,3 mm 5 m/s 745 mmHg 80%
    19:00 +23°C° 0,3 mm 4 m/s 745 mmHg 79%
    20:00 +22°C° 0,3 mm 4 m/s 745 mmHg 78%
    21:00 +21°C° 0,3 mm 4 m/s 745 mmHg 77%
    22:00 +20°C° 0 mm 4 m/s 745 mmHg 77%
    23:00 +20°C° 0 mm 4 m/s 745 mmHg 77%

    25 Iulie, Miercuri

    Timp Temperatura Precipitaţii Vânt Presiune Umiditate
    00:00 +19°C° 0 mm 4 m/s 745 mmHg 77%
    01:00 +19°C° 0 mm 4 m/s 745 mmHg 76%
    02:00 +19°C° 0 mm 5 m/s 745 mmHg 75%
    03:00 +19°C° 0 mm 5 m/s 745 mmHg 74%
    04:00 +19°C° 0,1 mm 5 m/s 746 mmHg 75%
    05:00 +19°C° 0,1 mm 5 m/s 746 mmHg 76%
    06:00 +19°C° 0,1 mm 5 m/s 746 mmHg 77%
    07:00 +20°C° 0 mm 6 m/s 746 mmHg 74%
    08:00 +21°C° 0 mm 6 m/s 747 mmHg 71%
    09:00 +22°C° 0 mm 6 m/s 747 mmHg 68%
    10:00 +22°C° 0,1 mm 7 m/s 747 mmHg 67%
    11:00 +23°C° 0,1 mm 7 m/s 747 mmHg 66%
    12:00 +23°C° 0,1 mm 7 m/s 748 mmHg 65%
    13:00 +24°C° 0,1 mm 7 m/s 748 mmHg 63%
    14:00 +26°C° 0,1 mm 7 m/s 748 mmHg 61%
    15:00 +26°C° 0,1 mm 7 m/s 748 mmHg 59%
    16:00 +26°C° 0 mm 6 m/s 748 mmHg 61%
    17:00 +26°C° 0 mm 5 m/s 748 mmHg 64%
    18:00 +25°C° 0 mm 5 m/s 748 mmHg 67%
    19:00 +23°C° 0,1 mm 4 m/s 748 mmHg 69%
    20:00 +22°C° 0,1 mm 4 m/s 748 mmHg 70%
    21:00 +21°C° 0,1 mm 4 m/s 748 mmHg 72%
    22:00 +20°C° 0 mm 4 m/s 748 mmHg 73%
    23:00 +20°C° 0 mm 4 m/s 748 mmHg 73%

    26 Iulie, Joi

    Timp Temperatura Precipitaţii Vânt Presiune Umiditate
    00:00 +19°C° 0 mm 4 m/s 748 mmHg 74%
    01:00 +19°C° 0 mm 4 m/s 748 mmHg 73%
    02:00 +18°C° 0 mm 4 m/s 748 mmHg 71%
    03:00 +18°C° 0 mm 4 m/s 748 mmHg 69%
    04:00 +18°C° 0 mm 4 m/s 749 mmHg 70%
    05:00 +19°C° 0 mm 5 m/s 749 mmHg 71%
    06:00 +19°C° 0 mm 5 m/s 749 mmHg 71%
    07:00 +20°C° 0 mm 5 m/s 749 mmHg 70%
    08:00 +22°C° 0 mm 6 m/s 749 mmHg 69%
    09:00 +24°C° 0 mm 7 m/s 749 mmHg 69%
    10:00 +26°C° 0 mm 7 m/s 749 mmHg 67%
    11:00 +27°C° 0 mm 6 m/s 749 mmHg 65%
    12:00 +28°C° 0 mm 6 m/s 749 mmHg 63%
    13:00 +28°C° 0 mm 6 m/s 749 mmHg 63%
    14:00 +28°C° 0 mm 6 m/s 749 mmHg 63%
    15:00 +29°C° 0 mm 6 m/s 749 mmHg 62%
    16:00 +29°C° 0 mm 5 m/s 749 mmHg 64%
    17:00 +28°C° 0 mm 5 m/s 749 mmHg 66%
    18:00 +28°C° 0 mm 4 m/s 749 mmHg 68%
    19:00 +27°C° 0 mm 4 m/s 749 mmHg 71%
    20:00 +26°C° 0 mm 4 m/s 749 mmHg 73%
    21:00 +25°C° 0 mm 5 m/s 749 mmHg 76%
    22:00 +23°C° 0 mm 5 m/s 749 mmHg 75%
    23:00 +23°C° 0 mm 5 m/s 750 mmHg 74%
    Arată mai mult